sat.trackr.live / text

‹ back to catalog

STARLINK-5334

NORAD 56509 · 2023-065G

PAYLOAD ACTIVE UNKNOWN

§ Identity

Operator
Country
US
Launch date
2023-05-14
Launch site
AFETR
Launch vehicle
Mass (kg)
RCS (m²)

Purposes: comms

External: N2YO · Heavens-Above · Gunter

§ Orbital elements

Epoch: 2026-05-24T11:31:15.386016Z

Period
94.27 min
Inclination
43.0028°
Eccentricity
0.0001428
Mean motion
15.27572147 rev/d
Perigee alt
482.1 km
Apogee alt
484.1 km
Semi-major
6,861.2 km
B*
-2.9618e-5
RAAN
144.2185°
Arg perigee
266.6827°
Mean anomaly
93.3861°
Rev number
16,819

§ Raw data

STARLINK-53341 56509U 23065G   26144.48003919 -.00001077  00000+0 -29618-4 0  99982 56509  43.0028 144.2185 0001428 266.6827  93.3861 15.27572147168197

JSON: /api/v1/satellites/56509 · /tle

For live sub-satellite position, see the globe view (requires WebGL).

§ Visibility from observer

Set your observer location to see the next 7 days of passes ≥ 10°. The values pass through the URL so the page stays shareable.

No JS? Fill the form by hand. The geolocation button needs JavaScript.